When you browse on this site, cookies collect data to enhance your experience and personalize the content and advertising you see.
Visit our Privacy Policy to learn more. By continuing to use the site, you agree to this use of cookies and data.
  • In Deutschland
  • Länderverzeichnis
  • Für 7 Tage
  • Wassertemperatur
  • Satellitenkarten
  • Wetterkarte
  • Widgets
  • user-avatar
    Anmelden

    Stündliche Wetter Reñaca

    Heute, 18 November, Sonntag

    Zeit Temperatur Niederschläge Wind Luftdruck Luftfeuchtigkeit
    00:00 +15°C° 0 mm 6 m/S 752 mmHg 64%
    01:00 +15°C° 0 mm 5 m/S 752 mmHg 61%
    02:00 +15°C° 0 mm 5 m/S 752 mmHg 60%
    03:00 +15°C° 0 mm 5 m/S 751 mmHg 59%
    04:00 +15°C° 0 mm 5 m/S 751 mmHg 57%
    05:00 +17°C° 0 mm 5 m/S 751 mmHg 49%
    06:00 +21°C° 0 mm 5 m/S 751 mmHg 42%
    07:00 +23°C° 0 mm 6 m/S 751 mmHg 33%
    08:00 +26°C° 0 mm 6 m/S 751 mmHg 29%
    09:00 +28°C° 0 mm 7 m/S 751 mmHg 24%
    10:00 +30°C° 0 mm 7 m/S 751 mmHg 20%
    11:00 +32°C° 0 mm 8 m/S 750 mmHg 20%
    12:00 +33°C° 0 mm 8 m/S 750 mmHg 20%
    13:00 +33°C° 0 mm 9 m/S 750 mmHg 20%
    14:00 +33°C° 0 mm 8 m/S 750 mmHg 22%
    15:00 +32°C° 0 mm 8 m/S 750 mmHg 23%
    16:00 +31°C° 0 mm 8 m/S 750 mmHg 25%
    17:00 +28°C° 0 mm 7 m/S 750 mmHg 31%
    18:00 +24°C° 0 mm 7 m/S 750 mmHg 37%
    19:00 +22°C° 0 mm 6 m/S 750 mmHg 43%
    20:00 +21°C° 0 mm 6 m/S 750 mmHg 45%
    21:00 +20°C° 0 mm 5 m/S 750 mmHg 46%
    22:00 +20°C° 0 mm 5 m/S 750 mmHg 47%
    23:00 +19°C° 0 mm 5 m/S 750 mmHg 47%

    Morgen, 19 November, Montag

    Zeit Temperatur Niederschläge Wind Luftdruck Luftfeuchtigkeit
    00:00 +19°C° 0 mm 5 m/S 749 mmHg 47%
    01:00 +19°C° 0 mm 5 m/S 749 mmHg 46%
    02:00 +18°C° 0 mm 4 m/S 749 mmHg 47%
    03:00 +18°C° 0 mm 4 m/S 749 mmHg 48%
    04:00 +17°C° 0 mm 4 m/S 749 mmHg 49%
    05:00 +20°C° 0 mm 4 m/S 749 mmHg 43%
    06:00 +22°C° 0 mm 4 m/S 749 mmHg 37%
    07:00 +26°C° 0 mm 4 m/S 750 mmHg 31%
    08:00 +27°C° 0 mm 4 m/S 750 mmHg 29%
    09:00 +29°C° 0 mm 5 m/S 750 mmHg 26%
    10:00 +32°C° 0 mm 5 m/S 750 mmHg 24%
    11:00 +32°C° 0 mm 6 m/S 750 mmHg 24%
    12:00 +33°C° 0 mm 6 m/S 750 mmHg 25%
    13:00 +33°C° 0 mm 7 m/S 750 mmHg 26%
    14:00 +32°C° 0 mm 7 m/S 750 mmHg 29%
    15:00 +30°C° 0 mm 6 m/S 750 mmHg 33%
    16:00 +29°C° 0 mm 6 m/S 750 mmHg 37%
    17:00 +26°C° 0 mm 6 m/S 750 mmHg 44%
    18:00 +23°C° 0 mm 5 m/S 751 mmHg 52%
    19:00 +21°C° 0 mm 5 m/S 751 mmHg 60%
    20:00 +20°C° 0 mm 4 m/S 751 mmHg 63%
    21:00 +19°C° 0 mm 4 m/S 751 mmHg 65%
    22:00 +19°C° 0 mm 4 m/S 751 mmHg 67%
    23:00 +19°C° 0 mm 4 m/S 751 mmHg 68%

    übermorgen, 20 November, Dienstag

    Zeit Temperatur Niederschläge Wind Luftdruck Luftfeuchtigkeit
    00:00 +18°C° 0 mm 3 m/S 751 mmHg 69%
    01:00 +18°C° 0 mm 3 m/S 751 mmHg 70%
    02:00 +18°C° 0 mm 3 m/S 751 mmHg 71%
    03:00 +17°C° 0 mm 3 m/S 751 mmHg 72%
    04:00 +17°C° 0 mm 3 m/S 751 mmHg 73%
    05:00 +19°C° 0 mm 3 m/S 751 mmHg 64%
    06:00 +22°C° 0 mm 4 m/S 751 mmHg 56%
    07:00 +25°C° 0 mm 4 m/S 751 mmHg 47%
    08:00 +27°C° 0 mm 4 m/S 751 mmHg 43%
    09:00 +28°C° 0 mm 5 m/S 752 mmHg 38%
    10:00 +30°C° 0 mm 6 m/S 752 mmHg 34%
    11:00 +32°C° 0 mm 6 m/S 752 mmHg 32%
    12:00 +32°C° 0 mm 6 m/S 752 mmHg 30%
    13:00 +33°C° 0 mm 7 m/S 752 mmHg 28%
    14:00 +32°C° 0 mm 7 m/S 751 mmHg 30%
    15:00 +30°C° 0 mm 7 m/S 751 mmHg 32%
    16:00 +28°C° 0 mm 7 m/S 751 mmHg 34%
    17:00 +26°C° 0 mm 6 m/S 752 mmHg 41%
    18:00 +23°C° 0 mm 6 m/S 752 mmHg 49%
    19:00 +21°C° 0 mm 5 m/S 752 mmHg 56%
    20:00 +20°C° 0 mm 5 m/S 752 mmHg 59%
    21:00 +19°C° 0 mm 5 m/S 752 mmHg 61%
    22:00 +19°C° 0 mm 5 m/S 752 mmHg 64%
    23:00 +17°C° 0 mm 5 m/S 752 mmHg 63%

    21 November, Mittwoch

    Zeit Temperatur Niederschläge Wind Luftdruck Luftfeuchtigkeit
    00:00 +18°C° 0 mm 4 m/S 752 mmHg 63%
    01:00 +18°C° 0 mm 4 m/S 752 mmHg 63%
    02:00 +17°C° 0 mm 4 m/S 752 mmHg 63%
    03:00 +17°C° 0 mm 4 m/S 751 mmHg 64%
    04:00 +16°C° 0 mm 5 m/S 751 mmHg 65%
    05:00 +19°C° 0 mm 4 m/S 751 mmHg 58%
    06:00 +21°C° 0 mm 4 m/S 752 mmHg 51%
    07:00 +23°C° 0 mm 4 m/S 752 mmHg 45%
    08:00 +26°C° 0 mm 5 m/S 752 mmHg 40%
    09:00 +28°C° 0 mm 6 m/S 752 mmHg 36%
    10:00 +30°C° 0 mm 6 m/S 752 mmHg 32%
    11:00 +30°C° 0 mm 7 m/S 752 mmHg 33%
    12:00 +30°C° 0 mm 7 m/S 752 mmHg 34%
    13:00 +30°C° 0 mm 7 m/S 752 mmHg 35%
    14:00 +29°C° 0 mm 7 m/S 752 mmHg 38%
    15:00 +29°C° 0 mm 7 m/S 752 mmHg 42%
    16:00 +28°C° 0 mm 7 m/S 752 mmHg 45%
    17:00 +26°C° 0 mm 6 m/S 752 mmHg 53%
    18:00 +23°C° 0 mm 6 m/S 753 mmHg 61%
    19:00 +21°C° 0 mm 6 m/S 753 mmHg 70%
    20:00 +20°C° 0 mm 5 m/S 753 mmHg 72%
    21:00 +19°C° 0 mm 5 m/S 753 mmHg 75%
    22:00 +19°C° 0 mm 5 m/S 753 mmHg 78%
    23:00 +19°C° 0 mm 5 m/S 753 mmHg 78%

    22 November, Donnerstag

    Zeit Temperatur Niederschläge Wind Luftdruck Luftfeuchtigkeit
    00:00 +19°C° 0 mm 5 m/S 752 mmHg 78%
    01:00 +17°C° 0 mm 5 m/S 752 mmHg 78%
    02:00 +17°C° 0 mm 5 m/S 751 mmHg 80%
    03:00 +17°C° 0 mm 5 m/S 751 mmHg 81%
    04:00 +18°C° 0 mm 4 m/S 751 mmHg 82%
    05:00 +20°C° 0 mm 5 m/S 751 mmHg 74%
    06:00 +22°C° 0 mm 5 m/S 751 mmHg 66%
    07:00 +23°C° 0 mm 5 m/S 751 mmHg 57%
    08:00 +26°C° 0 mm 5 m/S 750 mmHg 52%
    09:00 +28°C° 0 mm 6 m/S 750 mmHg 46%
    10:00 +29°C° 0 mm 6 m/S 750 mmHg 41%
    11:00 +30°C° 0 mm 7 m/S 750 mmHg 40%
    12:00 +30°C° 0 mm 7 m/S 750 mmHg 40%
    13:00 +30°C° 0 mm 7 m/S 750 mmHg 39%
    14:00 +29°C° 0 mm 7 m/S 750 mmHg 40%
    15:00 +29°C° 0 mm 6 m/S 749 mmHg 42%
    16:00 +28°C° 0 mm 6 m/S 749 mmHg 43%
    17:00 +26°C° 0 mm 5 m/S 750 mmHg 49%
    18:00 +23°C° 0 mm 4 m/S 750 mmHg 55%
    19:00 +21°C° 0 mm 4 m/S 750 mmHg 61%
    20:00 +20°C° 0 mm 4 m/S 750 mmHg 62%
    21:00 +20°C° 0 mm 3 m/S 750 mmHg 64%
    22:00 +20°C° 0 mm 3 m/S 750 mmHg 65%
    23:00 +19°C° 0 mm 3 m/S 750 mmHg 66%

    23 November, Freitag

    Zeit Temperatur Niederschläge Wind Luftdruck Luftfeuchtigkeit
    00:00 +19°C° 0 mm 3 m/S 749 mmHg 66%
    01:00 +19°C° 0 mm 3 m/S 749 mmHg 66%
    02:00 +19°C° 0 mm 3 m/S 749 mmHg 67%
    03:00 +19°C° 0 mm 3 m/S 749 mmHg 68%
    04:00 +18°C° 0 mm 3 m/S 749 mmHg 69%
    05:00 +21°C° 0 mm 3 m/S 749 mmHg 61%
    06:00 +24°C° 0 mm 3 m/S 749 mmHg 53%
    07:00 +26°C° 0 mm 3 m/S 749 mmHg 45%
    08:00 +28°C° 0 mm 4 m/S 749 mmHg 40%
    09:00 +30°C° 0 mm 5 m/S 749 mmHg 35%
    10:00 +33°C° 0 mm 5 m/S 749 mmHg 30%
    11:00 +33°C° 0 mm 6 m/S 749 mmHg 28%
    12:00 +34°C° 0 mm 6 m/S 749 mmHg 26%
    13:00 +34°C° 0 mm 7 m/S 749 mmHg 24%
    14:00 +33°C° 0 mm 7 m/S 749 mmHg 25%
    15:00 +32°C° 0 mm 7 m/S 749 mmHg 26%
    16:00 +30°C° 0 mm 7 m/S 749 mmHg 27%
    17:00 +28°C° 0 mm 6 m/S 749 mmHg 32%
    18:00 +25°C° 0 mm 5 m/S 750 mmHg 38%
    19:00 +22°C° 0 mm 5 m/S 750 mmHg 44%
    20:00 +21°C° 0 mm 4 m/S 750 mmHg 47%
    21:00 +20°C° 0 mm 4 m/S 750 mmHg 50%
    22:00 +19°C° 0 mm 4 m/S 750 mmHg 53%
    23:00 +19°C° 0 mm 4 m/S 750 mmHg 55%
    Mehr zeigen